Weather reports worldwide

Advertisment
Kaisersbach-Cronhütte, Germany (10747): temperature & dewpoint: 10.07.2018 18:00:00 - 16.07.2018 18:00:00 (CEST)Kaisersbach-Cronhütte, Germany (10747): temperature 5cm & temperature -5cm: 10.07.2018 18:00:00 - 16.07.2018 18:00:00 (CEST)Kaisersbach-Cronhütte, Germany (10747): temperature -20cm & temperature -100cm: 10.07.2018 18:00:00 - 16.07.2018 18:00:00 (CEST)Kaisersbach-Cronhütte, Germany (10747): wind speed & gusts: 10.07.2018 18:00:00 - 16.07.2018 18:00:00 (CEST)Kaisersbach-Cronhütte, Germany (10747): wind direction: 10.07.2018 18:00:00 - 16.07.2018 18:00:00 (CEST)Kaisersbach-Cronhütte, Germany (10747): reduced air pressure: 10.07.2018 18:00:00 - 16.07.2018 18:00:00 (CEST)Kaisersbach-Cronhütte, Germany (10747): visibility: 10.07.2018 18:00:00 - 16.07.2018 18:00:00 (CEST)Kaisersbach-Cronhütte, Germany (10747): sunshine duration: 10.07.2018 18:00:00 - 16.07.2018 18:00:00 (CEST)Kaisersbach-Cronhütte, Germany (10747): precipitation: 10.07.2018 18:00:00 - 16.07.2018 18:00:00 (CEST)
Date & Time tt [°C] td [°C] tt 5cm [°C] tt -5cm [°C] tt -20cm [°C] tt -100cm [°C] ff [km/h] ff [kn] fx [km/h] fx [kn] dd ppp [hPa] vv [km] sd [min] rr [mm]
16.07.2018 18:00:00 22,4 12,4 25,0 29,4 24,5 19,3 9 5 22 12 E 1010,9 70 30 0,0
16.07.2018 17:00:00 24,2 13,2 29,6 30,0 23,9 19,4 7 4 11 6 SW 1010,5 38 43 0,0
16.07.2018 16:00:00 22,0 13,0 24,0 29,3 23,2 19,3 8 4 13 7 E 1011,4 66 40 0,0
16.07.2018 15:00:00 22,6 14,9 27,8 26,8 22,9 19,3 6 4 10 5 S 1011,9 40 33 0,0
16.07.2018 14:00:00 17,1 15,4 17,9 23,9 22,8 19,3 8 4 17 9 W 1013,6 23 0 0,6
16.07.2018 13:00:00 19,3 13,4 18,4 27,2 22,2 19,3 8 4 15 8 NW 1013,6 32 18 0,0
16.07.2018 12:00:00 21,0 12,7 28,3 27,0 21,7 19,3 8 5 13 7 E 1013,3 40 32 0,0
16.07.2018 11:00:00 19,2 11,7 21,9 23,3 21,4 19,3 4 2 10 5 E 1014,3 64 3 0,0
16.07.2018 10:00:00 18,5 13,0 20,1 22,9 21,2 19,3 8 4 11 6 SW 1014,3 50 16 0,0
16.07.2018 09:00:00 18,5 13,8 21,5 21,3 21,1 19,3 5 3 9 5 SE 1014,4 47 17 0,0
16.07.2018 08:00:00 16,4 13,7 16,2 19,4 21,2 19,3 3 1 8 4 SSW 1014,8 33 17 0,0
16.07.2018 07:00:00 13,9 13,1 14,0 18,3 21,4 19,3 4 2 7 4 W 1015,2 14 0 0,0
16.07.2018 06:00:00 13,7 13,1 13,6 18,4 21,7 19,3 2 1 6 3 NW 1015,5 10 0 0,1
16.07.2018 05:00:00 14,1 12,9 14,0 18,8 22,0 19,3 2 1 6 3 NW 1015,7 28 0 0,3
16.07.2018 04:00:00 14,3 12,2 14,2 19,1 22,3 19,3 2 1 16 9 N 1015,7 14 0 0,0
16.07.2018 03:00:00 14,3 11,9 14,1 19,4 22,6 19,3 2 1 6 4 WNW 1015,3 34 0 0,0
16.07.2018 02:00:00 14,7 11,9 14,4 19,7 22,9 19,3 0 0 6 4 N 1015,4 45 0 0,0
16.07.2018 01:00:00 14,3 11,7 14,4 19,9 23,3 19,3 0 0 4 2 N 1015,9 45 0 0,0
16.07.2018 00:00:00 14,6 11,8 13,3 20,2 23,8 19,3 3 2 7 4 SSE 1015,9 41 0 0,0
15.07.2018 23:00:00 15,0 11,5 13,2 20,9 24,3 19,3 3 1 11 6 WSW 1015,7 48 0 0,0
15.07.2018 22:00:00 16,1 11,7 14,3 22,2 24,7 19,3 6 3 13 7 N 1015,5 49 0 0,0
15.07.2018 21:00:00 19,1 12,3 18,1 23,7 25,1 19,3 6 3 9 5 SW 1014,4 70 0 0,0
15.07.2018 20:00:00 20,9 12,2 21,0 25,2 25,3 19,2 4 2 14 8 NW 1014,0 70 4 0,0
15.07.2018 19:00:00 20,6 14,1 22,6 26,5 25,4 19,2 3 2 9 5 NNW 1014,2 70 0 0,0
15.07.2018 18:00:00 22,2 10,0 23,4 27,7 25,4 19,2 7 4 21 11 SE 1014,1 70 41 0,0
15.07.2018 17:00:00 21,0 11,9 19,4 27,3 25,5 19,2 7 4 18 10 SE 1014,6 66 12 0,7
15.07.2018 16:00:00 19,2 11,5 20,8 27,6 25,6 19,2 10 5 32 17 SSE 1015,7 54 0 0,0
15.07.2018 15:00:00 22,8 12,4 24,1 29,5 25,3 19,2 4 2 14 7 SSW 1014,5 47 0 0,0
15.07.2018 14:00:00 22,8 9,9 25,4 32,9 24,5 19,2 8 5 29 16 N 1014,5 62 34 0,0
15.07.2018 13:00:00 26,1 10,4 34,7 33,4 23,5 19,2 6 3 22 12 ENE 1014,0 35 60 0,0
15.07.2018 12:00:00 24,8 12,7 29,9 29,4 22,8 19,2 7 4 16 8 WSW 1014,5 36 37 0,0
15.07.2018 11:00:00 23,8 13,2 25,7 28,5 22,1 19,2 8 4 16 9 SSW 1015,0 43 54 0,0
15.07.2018 10:00:00 24,1 13,7 27,9 26,3 21,6 19,2 5 3 10 5 SSW 1014,8 45 60 0,0
15.07.2018 09:00:00 21,5 14,1 23,9 22,8 21,3 19,1 5 3 10 5 S 1015,5 35 60 0,0
15.07.2018 08:00:00 16,8 13,2 20,7 19,6 21,4 19,1 0 0 3 1 N 1016,2 16 60 0,0
15.07.2018 07:00:00 13,6 10,9 14,6 17,8 21,8 19,1 2 1 3 2 W 1016,6 16 37 0,0
15.07.2018 06:00:00 11,5 10,9 10,7 17,6 22,2 19,1 0 0 2 1 N 1017,3 12 0 0,0
15.07.2018 05:00:00 11,9 11,0 10,7 18,1 22,6 19,1 0 0 3 1 N 1017,3 17 0 0,0
15.07.2018 04:00:00 12,6 11,4 11,1 18,8 23,1 19,1 0 0 5 3 N 1017,2 16 0 0,0
15.07.2018 03:00:00 13,1 11,7 12,1 19,4 23,6 19,1 0 0 5 3 N 1017,3 21 0 0,0
15.07.2018 02:00:00 14,0 12,0 13,3 20,2 24,1 19,1 0 0 3 2 N 1017,7 24 0 0,0
15.07.2018 01:00:00 14,6 12,1 13,0 21,0 24,6 19,1 0 0 3 2 N 1017,4 27 0 0,0
15.07.2018 00:00:00 15,8 13,1 14,9 21,9 25,1 19,1 0 0 3 2 N 1017,3 26 0 0,0
14.07.2018 23:00:00 16,8 13,3 14,7 22,9 25,6 19,1 3 1 3 2 NW 1017,0 31 0 0,0
14.07.2018 22:00:00 18,8 13,8 16,0 24,6 26,1 19,1 2 1 5 3 NW 1016,4 12 0 0,0
14.07.2018 21:00:00 21,1 14,5 19,5 26,6 26,3 19,1 3 2 5 3 WNW 1015,5 42 20 0,0
14.07.2018 20:00:00 22,7 14,9 23,2 28,1 26,5 19,0 2 1 14 8 NNW 1015,2 42 5 0,0
14.07.2018 19:00:00 24,7 11,6 25,3 29,8 26,3 19,0 9 5 14 8 ESE 1015,2 48 30 0,0
14.07.2018 18:00:00 26,4 12,0 30,0 31,6 26,0 19,0 6 3 16 9 SE 1015,0 50 58 0,0
14.07.2018 17:00:00 26,0 13,2 30,6 30,4 25,5 19,0 3 2 16 9 E 1015,5 44 22 0,0
14.07.2018 16:00:00 26,1 12,5 31,8 31,9 24,9 19,0 10 6 20 11 ESE 1015,9 26 60 0,0
14.07.2018 15:00:00 24,7 14,8 29,3 29,7 24,5 19,0 9 5 19 11 E 1016,5 39 47 0,0
14.07.2018 14:00:00 22,2 16,8 27,3 28,9 24,2 19,0 8 4 16 9 ESE 1017,5 25 25 1,6
14.07.2018 13:00:00 20,9 14,4 18,9 29,7 23,9 19,0 6 4 19 10 N 1018,5 17 24 0,1
14.07.2018 12:00:00 22,2 14,1 23,1 28,2 23,3 19,0 5 3 13 7 NW 1017,8 48 15 0,0
14.07.2018 11:00:00 24,7 12,5 29,9 29,9 22,6 19,0 5 3 11 6 S 1017,4 44 58 0,0
14.07.2018 10:00:00 23,6 12,6 28,5 27,0 22,1 19,0 5 3 10 5 ENE 1017,7 41 60 0,0
14.07.2018 09:00:00 20,8 13,2 25,5 23,6 21,8 19,0 7 4 9 5 NE 1018,3 43 58 0,0
14.07.2018 08:00:00 17,0 13,7 20,4 20,3 22,0 19,0 0 0 3 2 N 1018,8 24 20 0,0
14.07.2018 07:00:00 14,2 11,9 15,4 19,4 22,2 18,9 2 1 3 2 WNW 1019,3 22 16 0,0
14.07.2018 06:00:00 12,7 11,2 12,6 18,8 22,6 18,9 0 0 2 1 N 1019,7 22 0 0,0
14.07.2018 05:00:00 12,8 11,3 11,4 19,3 23,0 18,9 2 1 3 2 NW 1019,7 26 0 0,0
14.07.2018 04:00:00 13,8 11,4 13,1 20,0 23,4 18,9 0 0 3 2 N 1019,4 29 0 0,0
14.07.2018 03:00:00 14,3 11,6 13,7 20,4 23,9 18,9 1 1 3 2 W 1019,4 35 0 0,0
14.07.2018 02:00:00 14,7 12,0 12,6 21,1 24,4 18,9 3 2 5 3 NNW 1019,5 34 0 0,0
14.07.2018 01:00:00 16,2 11,7 14,6 22,0 24,9 18,9 4 2 6 3 WNW 1019,5 47 0 0,0
14.07.2018 00:00:00 16,0 11,8 15,1 22,6 25,5 18,9 3 2 4 2 WNW 1019,4 41 0 0,0
13.07.2018 23:00:00 16,3 11,8 14,0 23,9 26,0 18,9 3 1 4 2 NW 1019,2 45 0 0,0
13.07.2018 22:00:00 17,9 12,2 15,2 25,6 26,5 18,9 2 1 4 2 NE 1018,5 52 0 0,0
13.07.2018 21:00:00 20,7 11,2 18,3 28,0 26,9 18,9 3 1 10 5 NW 1017,4 58 39 0,0
13.07.2018 20:00:00 24,1 10,0 25,4 30,5 26,9 18,9 4 2 14 8 NNW 1016,6 70 48 0,0
13.07.2018 19:00:00 25,5 8,8 29,8 32,4 26,6 18,9 6 3 13 7 N 1016,4 60 60 0,0
13.07.2018 18:00:00 25,4 9,6 29,9 33,6 26,2 18,9 6 3 20 11 WNW 1016,8 45 60 0,0
13.07.2018 17:00:00 25,0 10,7 31,9 34,2 25,5 18,9 10 5 18 10 NNW 1017,1 39 56 0,0
13.07.2018 16:00:00 25,3 10,9 33,4 34,2 24,6 19,0 8 4 20 11 NNW 1017,2 28 58 0,0
13.07.2018 15:00:00 24,1 11,8 29,6 32,5 23,7 19,0 7 4 22 12 WNW 1017,8 50 40 0,0
13.07.2018 14:00:00 23,8 11,7 32,9 33,0 22,7 18,9 11 6 19 10 NW 1018,1 30 51 0,0
13.07.2018 13:00:00 22,7 12,0 27,8 28,9 22,0 18,9 7 4 16 9 NW 1018,6 54 17 0,0
13.07.2018 12:00:00 23,0 12,8 31,4 29,4 21,2 18,9 7 4 16 9 NNW 1018,6 39 44 0,0
13.07.2018 11:00:00 21,2 11,7 25,0 27,3 20,4 18,9 8 4 17 9 WSW 1018,9 54 49 0,0
13.07.2018 10:00:00 21,7 12,2 27,0 24,7 19,8 18,9 4 2 11 6 WNW 1018,9 47 60 0,0
13.07.2018 09:00:00 19,3 12,3 25,1 21,1 19,6 19,0 3 2 5 3 E 1019,3 48 60 0,0
13.07.2018 08:00:00 14,2 10,8 18,2 17,7 19,7 19,0 0 0 5 3 N 1020,0 29 49 0,0
13.07.2018 07:00:00 10,8 8,9 12,1 16,0 20,0 19,0 0 0 2 1 N 1020,7 17 33 0,0
13.07.2018 06:00:00 8,9 8,5 8,1 15,6 20,4 19,0 0 0 2 1 N 1021,1 8 0 0,0
13.07.2018 05:00:00 9,0 8,6 8,0 16,0 20,8 19,0 0 0 3 2 N 1020,8 14 0 0,0
13.07.2018 04:00:00 9,5 8,9 8,2 16,6 21,2 19,0 0 0 3 2 N 1020,5 13 0 0,0
13.07.2018 03:00:00 10,1 9,3 9,1 17,2 21,7 19,0 2 1 3 2 N 1020,5 28 0 0,0
13.07.2018 02:00:00 10,4 9,4 9,1 17,9 22,2 19,0 0 0 3 1 N 1020,3 32 0 0,0
13.07.2018 01:00:00 11,1 9,9 9,6 18,7 22,7 19,0 0 0 3 1 N 1020,2 36 0 0,0
13.07.2018 00:00:00 12,3 10,2 10,5 19,7 23,3 19,0 2 1 3 1 NW 1019,9 51 0 0,0
12.07.2018 23:00:00 13,5 10,3 11,2 21,0 23,8 19,0 2 1 3 1 NNW 1019,3 59 0 0,0
12.07.2018 22:00:00 15,5 10,6 12,7 22,7 24,3 19,0 0 0 5 3 N 1018,6 44 0 0,0
12.07.2018 21:00:00 18,1 9,9 15,8 25,1 24,5 19,0 4 2 12 6 WNW 1017,4 70 49 0,0
12.07.2018 20:00:00 21,0 9,8 23,8 27,3 24,4 19,0 6 3 20 11 NW 1016,6 52 47 0,0
12.07.2018 19:00:00 22,3 8,5 25,5 28,8 24,2 19,0 8 4 18 10 WNW 1016,1 63 60 0,0
12.07.2018 18:00:00 21,6 10,2 26,5 27,9 24,0 19,0 5 3 13 7 W 1016,1 70 16 0,0
12.07.2018 17:00:00 21,2 9,7 24,7 29,4 23,5 19,0 7 4 22 12 W 1016,4 57 32 0,0
12.07.2018 16:00:00 20,8 10,5 23,8 30,1 22,7 19,0 11 6 22 12 W 1016,7 52 32 0,0
12.07.2018 15:00:00 20,6 11,6 25,4 30,3 21,8 19,1 14 8 29 16 WSW 1016,6 30 46 0,0
12.07.2018 14:00:00 20,0 11,0 24,7 28,2 21,0 19,1 9 5 22 12 WNW 1016,8 41 29 0,0
12.07.2018 13:00:00 19,5 11,1 25,6 26,1 20,3 19,1 8 4 18 10 NW 1016,9 45 28 0,0
12.07.2018 12:00:00 17,1 11,8 19,6 23,8 19,8 19,1 10 6 20 11 WNW 1017,5 30 15 0,0
12.07.2018 11:00:00 17,5 12,4 22,9 21,4 19,5 19,1 5 3 13 7 SSW 1017,3 22 9 0,0
12.07.2018 10:00:00 15,4 12,3 19,1 19,6 19,4 19,1 4 2 11 6 WNW 1017,5 16 0 0,1
12.07.2018 09:00:00 13,2 11,4 14,0 17,7 19,5 19,1 6 3 14 7 NNW 1017,9 4,8 0 0,0
12.07.2018 08:00:00 14,4 11,3 15,2 17,6 19,6 19,1 0 0 5 3 N 1016,9 31 0 0,0
12.07.2018 07:00:00 14,0 11,1 14,4 17,3 19,8 19,1 4 2 12 7 WSW 1016,6 36 0 0,0
12.07.2018 06:00:00 12,7 10,7 12,9 17,1 20,0 19,1 3 2 10 5 WNW 1016,9 42 0 0,0
12.07.2018 05:00:00 12,6 11,0 12,8 17,3 20,2 19,1 0 0 4 2 N 1016,6 30 0 0,0
12.07.2018 04:00:00 12,7 10,8 12,5 17,5 20,5 19,1 3 2 5 3 S 1016,8 34 0 0,1
12.07.2018 03:00:00 12,5 10,4 12,4 17,9 20,7 19,1 3 2 4 2 W 1017,1 36 0 0,0
12.07.2018 02:00:00 12,5 10,5 12,8 18,1 21,0 19,1 0 0 5 3 N 1017,2 37 0 0,0
12.07.2018 01:00:00 12,2 10,2 11,8 18,3 21,4 19,1 2 1 4 2 W 1017,3 43 0 0,0
12.07.2018 00:00:00 13,2 10,3 12,6 19,3 21,7 19,1 0 0 0 0 N 1017,7 39 0 0,0
11.07.2018 23:00:00 13,6 10,2 13,8 19,9 22,0 19,2 0 0 3 2 N 1017,6 49 0 0,0
11.07.2018 22:00:00 14,4 10,0 14,0 20,7 22,3 19,2 3 1 6 3 W 1017,4 52 0 0,0
11.07.2018 21:00:00 15,8 9,4 15,7 21,7 22,5 19,2 3 2 14 7 NNW 1016,9 59 0 0,0
11.07.2018 20:00:00 16,5 9,2 16,8 23,1 22,6 19,2 6 3 18 10 W 1016,4 61 0 0,0
11.07.2018 19:00:00 17,1 8,4 18,5 25,1 22,3 19,2 9 5 26 14 WNW 1016,1 52 36 0,0
11.07.2018 18:00:00 17,8 7,6 22,6 25,8 22,0 19,2 13 7 23 13 W 1015,6 33 41 0,0
11.07.2018 17:00:00 17,0 8,1 19,9 24,5 21,7 19,2 13 7 25 13 WSW 1015,8 39 3 0,0
11.07.2018 16:00:00 16,2 7,7 19,6 24,2 21,5 19,2 9 5 21 12 W 1016,2 35 0 0,0
11.07.2018 15:00:00 16,3 7,3 21,0 25,0 20,9 19,2 11 6 29 15 W 1015,9 42 19 0,0
11.07.2018 14:00:00 16,6 7,2 22,5 24,8 20,3 19,2 18 10 36 19 W 1015,7 40 25 0,0
11.07.2018 13:00:00 15,8 8,0 19,0 24,2 19,9 19,2 16 8 34 19 W 1015,9 32 30 0,0
11.07.2018 12:00:00 14,2 8,6 16,4 20,4 19,7 19,2 11 6 25 13 W 1016,2 27 2 0,0
11.07.2018 11:00:00 14,3 9,0 16,5 20,4 19,5 19,2 11 6 24 13 W 1016,0 26 15 0,0
11.07.2018 10:00:00 13,8 10,3 17,1 19,1 19,4 19,2 10 5 23 13 WSW 1016,0 16 26 0,0
11.07.2018 09:00:00 12,6 10,5 13,7 17,1 19,5 19,2 10 6 18 10 WSW 1016,0 11 8 0,2
11.07.2018 08:00:00 11,7 10,4 11,6 16,2 19,7 19,2 8 4 16 8 W 1016,0 12 0 0,1
11.07.2018 07:00:00 11,8 9,8 11,9 16,4 20,0 19,2 7 4 11 6 W 1015,7 23 0 0,0
11.07.2018 06:00:00 11,7 9,7 11,7 16,5 20,2 19,2 6 3 15 8 WSW 1015,5 23 0 0,0
11.07.2018 05:00:00 12,0 8,9 11,3 16,9 20,5 19,2 5 3 18 10 W 1015,4 29 0 0,1
11.07.2018 04:00:00 12,5 8,3 12,3 17,0 20,8 19,2 9 5 16 9 WSW 1015,4 48 0 0,0
11.07.2018 03:00:00 12,6 8,0 11,7 17,3 21,2 19,2 6 3 16 9 W 1015,5 50 0 0,0
11.07.2018 02:00:00 11,5 8,4 11,3 17,7 21,5 19,2 5 3 9 5 W 1016,0 34 0 0,0
11.07.2018 01:00:00 10,4 8,8 11,0 17,8 21,9 19,2 0 0 3 2 N 1016,6 28 0 0,0
11.07.2018 00:00:00 9,5 7,8 8,8 17,8 22,5 19,2 2 1 5 3 NNW 1017,0 29 0 0,0
10.07.2018 23:00:00 10,7 7,7 8,6 19,2 22,9 19,2 2 1 3 2 NNW 1016,8 38 0 0,0
10.07.2018 22:00:00 12,6 8,1 11,0 20,7 23,3 19,2 2 1 8 4 WNW 1016,4 38 0 0,0
10.07.2018 21:00:00 15,1 7,3 13,0 22,4 23,6 19,2 5 3 19 10 W 1015,5 51 44 0,0
10.07.2018 20:00:00 17,4 6,4 18,6 24,3 23,6 19,1 9 5 23 13 WNW 1015,0 50 40 0,0
10.07.2018 19:00:00 18,0 6,3 21,3 25,8 23,5 19,1 14 7 29 16 WNW 1014,5 46 48 0,0
10.07.2018 18:00:00 18,9 7,6 22,8 26,6 23,1 19,1 12 6 29 16 WNW 1014,5 40 40 0,0

tt = temperature
td = dewpoint
tt 5cm = temperature 5cm
tt -5cm = temperature -5cm
tt -20cm = temperature -20cm
tt -100cm = temperature -100cm
ff = wind speed
fx = gusts
dd = wind direction
ppp = reduced air pressure
vv = visibility
sd = sunshine duration
rr = precipitation

Next stations